{"data":{"norad_id":53153,"intl_designator":"2022-083X","name":"STARLINK-4098","alt_names":[],"object_type":"PAYLOAD","status":"ACTIVE","operator":null,"country":"US","launch_date":"2022-07-17","launch_site_code":"AFETR","launch_vehicle":null,"mission":null,"orbit_class":"UNKNOWN","rcs_meters":null,"size_class":null,"mass_kg":null,"dimensions":null,"purposes":["comms"],"wikipedia_slug":null,"has_3d_model":false,"image_url":null,"decayed_at":null,"tle_current":{"epoch":"2026-09-19T15:23:01.764096Z","epoch_age_seconds":146439,"freshness":"FRESH","line1":"1 53153U 22083X   26262.64099264 -.00001104  00000+0 -21542-4 0  9995","line2":"2 53153  53.1610   7.4549 0001144  84.1407 275.9726 15.34390918230712","mean_motion":15.34390918,"eccentricity":0.0001144,"inclination_deg":53.161,"raan_deg":7.4549,"arg_perigee_deg":84.1407,"mean_anomaly_deg":275.9726,"bstar":-2.1542e-5,"rev_number":23071,"period_min":93.848313562555,"perigee_km":461.94763874663,"apogee_km":463.51282916976,"semimajor_km":6840.8672339582,"source":"CELESTRAK","updated_at":"2026-09-20T09:00:40.182175Z"}}}